Location: Unspecified
(0.0000°N, 0.0000°E)
Time: 14:36:03
(UTC+00:00)

Vanguard 1 Rocket - All Passes

Search period start: 16 November 2018 00:00
Search period end: 26 November 2018 00:00
Orbit: 649 x 4227 km, 34.3° (Epoch: 15 November)

Date Brightness Start Highest point End Pass type
(mag) Time Alt. Az. Time Alt. Az. Time Alt. Az.
16 Nov - 00:44:44 10° WNW 00:51:35 23° NNW 01:02:27 10° NNE visible
16 Nov - 03:17:05 10° NNW 03:26:38 17° N 03:39:12 10° NE visible
16 Nov - 05:47:41 10° NNW 06:06:44 29° NNE 06:26:56 10° ENE daylight
16 Nov - 08:17:41 10° NW 08:43:47 61° NE 09:02:46 10° ESE daylight
16 Nov - 10:51:49 10° WNW 11:15:49 61° SW 11:29:32 10° SE daylight
16 Nov - 13:36:16 10° WSW 13:44:36 16° SW 13:50:46 10° S daylight
16 Nov - 21:07:46 10° SSW 21:12:16 45° SE 21:19:03 10° ENE visible
16 Nov - 23:32:35 10° W 23:38:29 31° NNW 23:48:29 10° NE night (unlit)
17 Nov - 02:03:17 10° NW 02:10:24 16° N 02:20:05 10° NNE visible
17 Nov - 04:34:39 10° NNW 04:48:59 21° NNE 05:06:28 10° ENE visible
17 Nov - 07:03:40 10° NW 07:27:31 46° NNE 07:48:34 10° E daylight
17 Nov - 09:35:12 10° NW 10:01:45 85° SW 10:18:22 10° SE daylight
17 Nov - 12:14:26 10° W 12:31:40 31° SW 12:42:15 10° SSE daylight
17 Nov - 19:58:45 10° S 20:01:35 16° SE 20:04:50 10° ESE visible
17 Nov - 22:21:17 10° WSW 22:26:25 51° NNW 22:35:15 10° NE night (unlit)
18 Nov - 00:49:46 10° NW 00:55:42 17° NNW 01:04:09 10° NNE visible
18 Nov - 03:21:51 10° NNW 03:31:30 16° N 03:43:58 10° NE visible
18 Nov - 05:50:28 10° NNW 06:10:39 34° NNE 06:32:01 10° E daylight
18 Nov - 08:20:03 10° NW 08:46:36 73° NE 09:06:08 10° ESE daylight
18 Nov - 10:55:09 10° WNW 11:18:22 50° SW 11:32:13 10° SSE daylight
18 Nov - 13:43:24 10° SW 13:48:05 12° SW 13:52:01 10° SSW daylight
18 Nov - 21:10:42 10° SW 21:15:17 76° SE 21:22:18 10° ENE visible
18 Nov - 23:36:59 10° WNW 23:42:16 22° NNW 23:50:19 10° NNE night (unlit)
19 Nov - 02:08:58 10° NNW 02:15:03 14° N 02:22:46 10° NNE visible
19 Nov - 04:37:55 10° NNW 04:53:25 24° NNE 05:12:20 10° ENE visible
19 Nov - 07:06:03 10° NW 07:30:37 54° NE 07:52:26 10° ESE daylight
19 Nov - 09:37:58 10° WNW 10:04:17 73° SW 10:21:15 10° SE daylight
19 Nov - 12:19:23 10° W 12:34:38 25° SW 12:44:38 10° SSE daylight
19 Nov - 20:00:51 10° SSW 20:04:38 27° SE 20:09:11 10° E visible
19 Nov - 22:25:04 10° W 22:29:53 32° NNW 22:37:32 10° NE night (unlit)
20 Nov - 00:55:34 10° NNW 00:59:59 13° N 01:05:33 10° NNE visible
20 Nov - 03:25:56 10° NNW 03:36:16 17° NNE 03:49:38 10° NE visible
20 Nov - 05:53:02 10° NNW 06:14:09 40° NNE 06:36:38 10° E daylight
20 Nov - 08:22:31 10° NW 08:49:15 85° NE 09:09:15 10° SE daylight
20 Nov - 10:58:56 10° WNW 11:21:00 41° SW 11:34:48 10° SSE daylight
20 Nov - 21:13:57 10° WSW 21:18:27 63° NW 21:25:12 10° NE visible
20 Nov - 23:42:05 10° NW 23:46:13 15° NNW 23:51:44 10° NNE night (unlit)
21 Nov - 02:14:24 10° NNW 02:19:47 12° N 02:26:20 10° NNE visible
21 Nov - 04:40:49 10° NNW 04:57:27 28° NNE 05:17:56 10° E visible
21 Nov - 07:08:28 10° NW 07:33:27 64° NE 07:55:57 10° ESE daylight
21 Nov - 09:41:01 10° WNW 10:06:46 61° SW 10:23:58 10° SE daylight
21 Nov - 12:25:02 10° WSW 12:37:54 20° SW 12:46:56 10° S daylight
21 Nov - 20:03:27 10° SW 20:07:41 49° SE 20:12:51 10° ENE visible
21 Nov - 22:29:21 10° WNW 22:33:32 21° NNW 22:39:29 10° NNE night (unlit)
22 Nov - 01:03:45 10° N 01:04:26 10° N 01:05:08 10° N visible
22 Nov - 03:29:20 10° NNW 03:40:47 19° NNE 03:55:47 10° ENE visible
22 Nov - 05:55:31 10° NW 06:17:17 47° NE 06:40:48 10° ESE daylight
22 Nov - 08:25:11 10° NW 08:51:45 83° SW 09:12:10 10° SE daylight
22 Nov - 11:03:15 10° W 11:23:49 34° SW 11:37:19 10° SSE daylight
22 Nov - 18:53:43 10° S 18:56:52 18° SE 18:59:58 10° ESE visible
22 Nov - 21:17:32 10° W 21:21:46 36° NNW 21:27:45 10° NE visible
22 Nov - 23:49:29 10° NNW 23:50:20 10° N 23:51:13 10° N night (unlit)
23 Nov - 02:18:52 10° N 02:24:29 12° NNE 02:31:19 10° NE visible
23 Nov - 04:43:29 10° NNW 05:01:04 33° NNE 05:23:02 10° E visible
23 Nov - 07:10:58 10° NW 07:36:04 75° NE 07:59:10 10° ESE daylight
23 Nov - 09:44:26 10° WNW 10:09:19 51° SW 10:26:35 10° SE daylight
23 Nov - 12:31:23 10° WSW 12:41:32 16° SSW 12:49:10 10° S daylight
23 Nov - 20:06:27 10° SW 20:10:48 89° NW 20:16:05 10° NE visible
23 Nov - 22:34:32 10° NW 22:37:19 13° NNW 22:40:43 10° N night (unlit)
24 Nov - 03:32:16 10° NNW 03:44:56 22° NNE 04:01:55 10° ENE visible
24 Nov - 05:58:00 10° NW 06:20:07 56° NE 06:44:32 10° ESE daylight
24 Nov - 08:28:05 10° WNW 08:54:12 71° SW 09:14:55 10° SE daylight
24 Nov - 11:08:10 10° W 11:26:55 28° SW 11:39:48 10° SSE daylight
24 Nov - 18:55:54 10° SSW 19:00:05 32° SE 19:04:08 10° E visible
24 Nov - 21:21:38 10° WNW 21:25:14 21° NNW 21:29:53 10° NNE night (unlit)
25 Nov - 02:22:15 10° N 02:29:02 14° NNE 02:37:33 10° NE visible
25 Nov - 04:46:02 10° NNW 05:04:17 40° NE 05:27:37 10° E visible
25 Nov - 07:13:36 10° NW 07:38:33 87° NE 08:02:09 10° SE daylight
25 Nov - 09:48:17 10° WNW 10:12:02 43° SW 10:29:08 10° SSE daylight
25 Nov - 12:38:19 10° SW 12:45:32 13° SSW 12:51:22 10° S daylight
25 Nov - 17:46:02 10° S 17:48:49 14° SSE 17:51:16 10° ESE daylight
25 Nov - 20:09:47 10° WSW 20:14:00 47° NW 20:18:56 10° NE visible
